Weather History for KEAT - March, 2011

Change the Weather History Date:

Tuesday, March 22, 2011

  Actual Average Record
Temperature  
Mean Temperature 36 °F 46 °F  
Max Temperature 44 °F 56 °F 71 °F (1978)
Min Temperature 28 °F 37 °F 25 °F (1994)
Degree Days  
Heating Degree Days 29 19  
Month to date heating degree days 631 491  
Since 1 July heating degree days 5913 4955  
Cooling Degree Days 0 0  
Month to date cooling degree days 0 0  
Year to date cooling degree days 0 0  
Moisture  
Dew Point 23 °F    
Average Humidity 45    
Maximum Humidity 65    
Minimum Humidity 25    
Precipitation  
Precipitation 0.00 in 0.02 in 0.26 in (1983)
Month to date precipitation 1.89 0.48  
Year to date precipitation 4.99 2.35  
Snow  
Snow 0.00 in - - ()
Month to date snowfall 2.5  
Snow Depth 0.00 in    
Sea Level Pressure  
Sea Level Pressure 29.89 in    
Wind  
Wind Speed 11 mph (NW)    
Max Wind Speed 18 mph    
Max Gust Speed 22 mph    
Visibility 10 miles    
Events      
T = Trace of Precipitation, MM = Missing Value Source: NWS Daily Summary

Daily Weather History Graph

Daily Weather History Graph

Search for Another Location

Airport or City:

Trip Planner

Search our weather history database for the weather conditions in past years. The results will help you decide how hot, cold, wet, or windy it might be!

Date:

Astronomy

Mar. 22, 2011 Rise Set
Actual Time 7:00 AM PDT 7:16 PM PDT
Civil Twilight 6:29 AM PDT 7:46 PM PDT
Nautical Twilight 5:53 AM PDT 8:23 PM PDT
Astronomical Twilight 5:16 AM PDT 9:00 PM PDT
Moon 11:53 PM PDT (3/22) 8:06 AM PDT (3/22)
Length of Visible Light 13h 17m
Length of Day
12h 16m
Waning Gibbous, 87% of the Moon is Illuminated
Mar 22
Waning Gibbous
Mar 26
Last Quarter
Apr 3
New
Apr 11
First Quarter
Apr 17
Full

Hourly Weather History & Observations

Time (PDT) Temp. Windchill Dew Point Humidity Pressure Visibility Wind Dir Wind Speed Gust Speed Precip Events Conditions
12:55 AM 43.0 °F 36.4 °F 28.9 °F 58% 29.73 in 10.0 mi NW 12.7 mph - N/A   Scattered Clouds
1:55 AM 41.0 °F 34.7 °F 28.0 °F 60% 29.74 in 10.0 mi NW 10.4 mph - N/A   Clear
2:55 AM 41.0 °F 34.3 °F 27.0 °F 57% 29.76 in 10.0 mi NW 11.5 mph - N/A   Clear
3:55 AM 37.9 °F 32.7 °F 27.0 °F 65% 29.78 in 10.0 mi NW 6.9 mph - N/A   Clear
4:55 AM 37.9 °F 31.5 °F 26.1 °F 62% 29.81 in 10.0 mi NW 9.2 mph - N/A   Clear
5:55 AM 37.0 °F 29.8 °F 25.0 °F 62% 29.82 in 10.0 mi NW 10.4 mph - N/A   Clear
7:55 AM 37.9 °F 30.5 °F 24.1 °F 57% 29.87 in 10.0 mi NW 11.5 mph - N/A   Clear
8:55 AM 42.1 °F 34.9 °F 23.0 °F 47% 29.88 in 10.0 mi NW 13.8 mph - N/A   Clear
9:55 AM 44.1 °F 36.5 °F 21.9 °F 42% 29.90 in 10.0 mi WNW 17.3 mph - N/A   Clear
10:55 AM 46.0 °F 40.6 °F 21.9 °F 39% 29.90 in 10.0 mi WNW 11.5 mph - N/A   Clear
11:52 AM 51.8 °F - 26.6 °F 38% 29.90 in 10.0 mi NW 18.4 mph - N/A   Partly Cloudy
11:55 AM 48.9 °F - 21.0 °F 33% 29.90 in - Calm Calm - N/A   Unknown
12:21 PM 50.0 °F - 21.2 °F 32% 29.89 in 10.0 mi WNW 12.7 mph 21.9 mph N/A   Unknown
12:55 PM 51.1 °F - 21.0 °F 31% 29.90 in 10.0 mi WNW 13.8 mph - N/A   Clear
1:55 PM 52.0 °F - 19.9 °F 28% 29.91 in 10.0 mi NW 16.1 mph 20.7 mph N/A   Clear
2:55 PM 52.0 °F - 19.0 °F 27% 29.90 in 10.0 mi WNW 10.4 mph 16.1 mph N/A   Clear
3:55 PM 52.0 °F - 17.1 °F 25% 29.91 in 10.0 mi West 5.8 mph - N/A   Clear
4:55 PM 52.0 °F - 18.0 °F 26% 29.92 in 10.0 mi WNW 9.2 mph - N/A   Clear
6:55 PM 48.9 °F - 21.0 °F 33% 29.94 in 10.0 mi WNW 12.7 mph - N/A   Clear
7:55 PM 44.1 °F 42.5 °F 23.0 °F 43% 29.96 in 10.0 mi NNW 3.5 mph - N/A   Clear
8:55 PM 42.1 °F 39.2 °F 21.9 °F 45% 29.98 in 10.0 mi NW 4.6 mph - N/A   Clear
9:55 PM 39.9 °F 37.8 °F 23.0 °F 51% 29.99 in 10.0 mi NNW 3.5 mph - N/A   Clear
10:55 PM 39.0 °F 35.7 °F 24.1 °F 55% 29.99 in 10.0 mi North 4.6 mph - N/A   Clear
11:55 PM 37.9 °F 34.4 °F 25.0 °F 60% 29.99 in 10.0 mi WNW 4.6 mph - N/A   Clear